Location: Breckenridge
(39.4820°N, 106.0380°W)
Time: 04:44:28
(UTC-06:00)

Hubble Space Telescope - Pass Details

Date: 26 March 2019
Orbit: 536 x 540 km, 28.5° (Epoch: 16 October)

Event Time Altitude Azimuth Distance (km) Brightness Sun altitude
Rises 20:11:06 0° 226° (SW) 2,664 4.8 -10.2°
Reaches altitude 10° 20:14:15 10° 201° (SSW) 1,775 3.5 -10.8°
Maximum altitude 20:16:26 14° 169° (S) 1,533 2.9 -11.2°
Enters shadow 20:18:20 11° 140° (SE) 1,719 2.9 -11.6°
